ONEWEB-0689, 61597

Orbit data source: Space-Track

ONEWEB-0689, 61597 is a payload satellite owned by Eut. One Web (UK) in LEO that was launched on Sun, 20 Oct 2024 UTC via an FALCON 9 launch vehicle from the Air Force Western Test Range (AFWTR). Payload-class satellites include a variety of spacecraft equipped with specific instruments for various scientific and technological missions. These include communications satellites like Starlink; space stations such as the ISS; scientific satellites like the Hubble; Earth observation satellites from companies like Planet Labs, Umbra, and HawkEye 360; GPS; miniature CubeSats for education and research; and military/defense satellites.

Loading next visibility...
Identifier
61597, 2024-188D
Orbit
LEO
Country
Flag of UKUK
Related business
Manufacturer
One Web
Mission
Operational Commercial Communications
Bus & Motor
ARROW, Unknown motor
Mass
148 kg wet, ~140 kg dry
Launch date (UTC)
2024-10-20 (2 years ago)
Launch vehicle
FALCON 9
Launch site
Air Force Western Test Range (AFWTR)
Object type
Payload
Rocket body
Debris
Shape & HBR
Trap Box + 2 Pan, 6.7 m
Radar Cross Section
3.464 m², Large (>1 m²)

Expand to show TLE details & history
Last TLE update: 7 hours ago

TLE from 7 hours ago
0 ONEWEB-0689
1 61597U 24188D   26208.39916611 -.00000341  00000-0 -99900-3 0  9995
2 61597  87.8902  13.0486 0001905  83.2423 276.8922 13.11416151 89729
Epoch: 2026-07-27T09:34Z
TLE epoch observation values (Epoch: 2026-07-27T09:34:47.951Z)
Latitude
-0.00001°
Longitude
-75.7345°
Altitude
1,220.402 km
Speed
7.244 km/s
True Right ascension
00h 52m 11s
True Declination
0° 00' 00"
Sunlit
Object was in daylight at epoch
Visualization orbit readout
Latitude
Unknown
Longitude
Unknown
Altitude
Unknown
Speed
Unknown
Apparent Right ascension
Unknown
Apparent Declination
Unknown
Sunlit
N/A
Visualization observer readout
Local Sidereal Time
06:24:49
Azimuth
Unknown
Elevation
Unknown
Doppler factor
Unknown
Orbital elements
Apogee altitude
1,216.25 km
Perigee altitude
1,213.358 km
Semi-major axis
7,592.941 km
Eccentricity
0.00019
Inclination
87.8902°
RAAN
13.0486°
Arg. of periapsis
83.2423°
True anomaly
276.87053°
Mean anomaly
276.8922°
Eccentric anomaly
276.88136°
Mean motion
3.28041 °/min
Orbital period
109.74 mins
BSTAR
-0.000999
Loading maneuver chart data...
Computing Atmospheric mass density...
Loading historical data...
Loading historical data...
Loading historical data...
Loading historical data...
Loading historical data...
Loading historical data...
Loading historical data...

Documentation

Showing up to 5 results
|